NR6J Weather Reports


Display with metric or nautical units.
time (UTC)temp
F
wind
direction
speed
MPH
gust
MPH
rain 1hr
in
rain 24hr
in
rain mn
in
humidity
%
barometer
mb
20260506090912 50 99 3.0 4.0 0.00 0.00 0.00 93 1019.4
20260506090029 50 89 4.0 4.0 0.00 0.00 0.00 93 1019.4
20260506084919 50 85 4.0 4.0 0.00 0.00 0.00 94 1019.4
20260506083913 50 93 3.0 4.0 0.00 0.00 0.00 94 1019.4
20260506082914 50 91 4.0 4.0 0.00 0.00 0.00 94 1019.4
20260506081929 50 95 4.0 4.0 0.00 0.00 0.00 93 1019.4
20260506080922 50 98 4.0 4.0 0.00 0.00 0.00 93 1019.4
20260506072925 50 93 4.0 4.0 0.00 0.00 0.00 93 1019.0
20260506071922 50 79 3.0 4.0 0.00 0.00 0.00 93 1018.9
20260506070915 50 91 3.0 4.0 0.00 0.00 0.00 93 1018.9
20260506061911 51 88 3.0 4.0 0.00 0.00 0.00 92 1018.6
20260506060905 51 86 3.0 4.0 0.00 0.00 0.00 92 1018.5
20260506050904 51 82 3.0 4.0 0.00 0.00 0.00 92 1018.0
20260506044915 51 94 3.0 4.0 0.00 0.00 0.00 92 1017.7
20260506043914 51 99 3.0 4.0 0.00 0.00 0.00 91 1017.6
20260506042859 52 78 3.0 4.0 0.00 0.00 0.00 91 1017.5
20260506041911 52 94 3.0 4.0 0.00 0.00 0.00 91 1017.4
20260506040907 52 83 3.0 4.0 0.00 0.00 0.00 91 1017.1
20260506035859 52 79 3.0 6.0 0.00 0.00 0.00 91 1016.9
20260506034859 52 81 3.0 4.0 0.00 0.00 0.00 91 1016.7
20260506033901 52 73 3.0 4.0 0.00 0.00 0.00 90 1016.4
20260506032855 52 98 3.0 5.0 0.00 0.00 0.00 90 1016.1
20260506031853 52 78 4.0 5.0 0.00 0.00 0.00 89 1015.9
20260506030901 53 92 4.0 5.0 0.00 0.00 0.00 88 1015.7
20260506025852 53 89 3.0 5.0 0.00 0.00 0.00 87 1015.5
20260506025010 54 86 4.0 6.0 0.00 0.00 0.00 86 1015.2
20260506023902 55 86 4.0 6.0 0.00 0.00 0.00 84 1015.0
20260506022901 55 99 4.0 5.0 0.00 0.00 0.00 83 1014.8
20260506021854 56 91 4.0 5.0 0.00 0.00 0.00 81 1014.6
20260506020907 57 83 4.0 6.0 0.00 0.00 0.00 79 1014.5
20260506015851 58 84 4.0 6.0 0.00 0.00 0.00 77 1014.2
20260506015007 59 63 4.0 6.0 0.00 0.00 0.00 75 1014.0
20260506013852 60 79 4.0 6.0 0.00 0.00 0.00 73 1013.9
20260506012850 62 97 5.0 7.0 0.00 0.00 0.00 70 1013.8
20260506011857 63 65 4.0 6.0 0.00 0.00 0.00 67 1013.7
20260506010903 64 88 4.0 7.0 0.00 0.00 0.00 64 1013.6
20260506005849 65 77 4.0 7.0 0.00 0.00 0.00 62 1013.5
20260506004852 66 87 2.0 5.0 0.00 0.00 0.00 60 1013.3
20260506003846 67 133 0.0 3.0 0.00 0.00 0.00 55 1013.2
20260506002846 68 94 0.0 3.0 0.00 0.00 0.00 55 1013.1
20260506001845 68 179 1.0 5.0 0.00 0.00 0.00 56 1013.2
20260506000844 69 309 1.0 4.0 0.00 0.00 0.00 53 1013.2
20260505235840 70 168 1.0 4.0 0.00 0.00 0.00 51 1013.1
20260505234842 69 333 1.0 3.0 0.00 0.00 0.00 52 1013.1
20260505233832 70 304 2.0 6.0 0.00 0.00 0.00 50 1013.2
20260505232830 71 0 2.0 5.0 0.00 0.00 0.00 51 1013.2
20260505231945 71 0 2.0 5.0 0.00 0.00 0.00 48 1013.2
20260505230831 72 348 2.0 6.0 0.00 0.00 0.00 46 1013.3
20260505225828 73 227 2.0 8.0 0.00 0.00 0.00 44 1013.3
20260505224940 74 346 3.0 7.0 0.00 0.00 0.00 43 1013.5
20260505223825 74 207 3.0 11.0 0.00 0.00 0.00 32 1013.2
20260505222825 75 247 2.0 5.0 0.00 0.01 0.00 32 1013.3
20260505221837 74 247 2.0 5.0 0.00 0.01 0.00 32 1013.3
20260505220825 73 200 2.0 4.0 0.00 0.01 0.00 31 1013.5
20260505215822 73 226 2.0 8.0 0.00 0.01 0.00 32 1013.5
20260505214826 72 351 2.0 7.0 0.00 0.01 0.00 33 1013.6
20260505213825 72 315 2.0 5.0 0.00 0.01 0.00 33 1013.8
20260505212823 72 233 2.0 9.0 0.00 0.01 0.00 34 1013.8
20260505211822 71 186 2.0 9.0 0.00 0.01 0.00 35 1013.9
20260505210825 71 332 2.0 10.0 0.00 0.01 0.00 35 1013.9
20260505205823 71 197 3.0 9.0 0.00 0.01 0.00 35 1014.0
20260505204820 70 224 3.0 9.0 0.00 0.01 0.00 36 1014.0
20260505203819 70 61 2.0 10.0 0.00 0.01 0.00 36 1014.1
20260505202817 70 65 2.0 8.0 0.00 0.01 0.00 35 1014.1
20260505201817 70 75 2.0 8.0 0.00 0.01 0.00 36 1014.1
20260505200927 70 245 2.0 5.0 0.00 0.01 0.00 36 1014.4
20260505195825 71 199 3.0 11.0 0.00 0.01 0.00 35 1014.5
20260505194816 70 86 2.0 9.0 0.00 0.01 0.00 36 1014.5
20260505193815 69 196 3.0 8.0 0.00 0.01 0.00 35 1014.5
20260505192818 69 25 2.0 6.0 0.00 0.01 0.00 40 1014.6
20260505191816 69 181 3.0 6.0 0.00 0.01 0.00 39 1014.6
20260505190814 69 18 2.0 9.0 0.00 0.01 0.00 41 1014.7
20260505185816 67 75 2.0 8.0 0.00 0.01 0.00 35 1014.7
20260505184923 68 278 3.0 8.0 0.00 0.01 0.00 37 1014.7
20260505183812 67 60 3.0 9.0 0.00 0.01 0.00 40 1014.8
20260505182924 66 43 4.0 7.0 0.00 0.01 0.00 43 1014.8
20260505181815 65 74 3.0 9.0 0.00 0.01 0.00 45 1014.9
20260505180931 63 49 4.0 9.0 0.00 0.01 0.00 47 1014.8
20260505175813 62 85 3.0 9.0 0.00 0.01 0.00 51 1014.9
20260505174816 62 106 4.0 8.0 0.00 0.01 0.00 54 1014.8
20260505173814 60 78 4.0 7.0 0.00 0.01 0.00 56 1014.6
20260505172929 57 162 3.0 8.0 0.00 0.01 0.00 74 1014.6
20260505171812 56 176 3.0 5.0 0.00 0.01 0.00 75 1014.6
20260505170811 54 102 3.0 4.0 0.00 0.01 0.00 81 1014.6
20260505165810 53 96 2.0 4.0 0.00 0.01 0.00 84 1014.6
20260505164809 52 166 2.0 4.0 0.00 0.01 0.00 85 1014.5
20260505163806 52 72 3.0 4.0 0.00 0.01 0.00 89 1014.6
20260505162805 50 104 2.0 4.0 0.00 0.01 0.00 89 1014.6
20260505161808 49 102 3.0 5.0 0.00 0.01 0.00 91 1014.6
20260505160806 48 171 2.0 3.0 0.00 0.01 0.00 95 1014.6
20260505152806 46 12 2.0 4.0 0.00 0.01 0.00 95 1014.7
20260505151801 46 105 2.0 4.0 0.00 0.01 0.00 95 1014.7
20260505150759 46 176 2.0 3.0 0.00 0.01 0.00 95 1014.6
20260505124754 45 87 2.0 4.0 0.00 0.01 0.00 96 1014.0
20260505123801 45 70 2.0 4.0 0.00 0.01 0.00 96 1013.9
20260505122810 45 107 2.0 4.0 0.00 0.01 0.00 96 1013.9
20260505121756 45 12 3.0 3.0 0.00 0.01 0.00 96 1013.8
20260505120751 45 93 3.0 4.0 0.00 0.01 0.00 96 1013.7
20260505114756 45 90 3.0 4.0 0.00 0.01 0.00 96 1013.7
20260505113900 45 90 2.0 4.0 0.00 0.01 0.00 96 1013.7
20260505112748 45 87 3.0 4.0 0.00 0.01 0.00 96 1013.8
20260505111759 45 91 3.0 4.0 0.00 0.01 0.00 96 1013.8
20260505110756 45 75 3.0 3.0 0.00 0.01 0.00 96 1013.8
20260505101747 45 112 3.0 5.0 0.00 0.01 0.00 96 1013.7
20260505100750 45 92 3.0 5.0 0.00 0.01 0.00 96 1013.7
20260505095743 45 113 3.0 4.0 0.00 0.01 0.00 96 1013.6
20260505094801 45 100 3.0 4.0 0.00 0.01 0.00 96 1013.7
20260505093748 45 90 3.0 4.0 0.00 0.01 0.00 96 1013.8
20260505092758 45 98 4.0 4.0 0.00 0.01 0.00 96 1013.7
20260505091741 45 104 3.0 4.0 0.00 0.01 0.00 96 1013.7